#timestamp,LO_Frequency,Hit,StdDev 
1620079215.4,286047001.1,N
1620079235.3,286046998.1,N
1620079285.1,286046999.2,E
1620079295.1,286046996.7,N
1620079296.0,286046996.7,P
1620079315.8,286046996.7,P
1620079335.6,286046998.6,Y
1620079355.5,286047002.2,P
1620079375.3,286047002.6,N
1620079395.2,286046999.9,N
1620079415.0,286047002.8,N
1620079415.9,286047002.8,N
1620079435.7,286047001.7,N
1620079455.6,286047001.9,N
1620079475.4,286047003.8,N
1620079495.3,286047002.4,N
1620079515.1,286047000.8,N
1620079516.0,286047000.8,N
1620079535.8,286047000.3,N
1620079555.7,286047001.2,N
1620079575.5,286046998.2,N
1620079595.3,286046998.8,N
1620079615.2,286047001.2,N
1620079635.0,286047002.5,N
1620079635.9,286047002.5,N
1620079655.8,286047002.7,N
1620079675.6,286047000.4,N
1620079695.4,286047002.0,N
1620079715.3,286047001.6,N
1620079735.1,286047003.2,N
1620079755.9,286047007.4,Y
1620079775.7,286047006.0,P
1620079795.5,286047002.2,N
1620079815.4,286046999.8,N
1620079835.2,286047001.3,N
1620079855.0,286047003.3,N
1620079855.9,286047003.3,N
1620079875.8,286047005.2,N
1620079895.6,286047007.2,Y
1620079915.5,286047004.4,P
1620079935.3,286047002.3,N
1620079955.1,286046997.0,P
1620079975.9,286046998.4,N
1620079995.7,286047002.2,N
1620080015.5,286047002.8,N
1620080035.4,286046998.3,N
1620080055.2,286046999.1,N
1620080075.0,286047001.2,N
1620080076.0,286047001.2,N
1620080095.8,286047002.1,N
1620080115.6,286047002.4,N
1620080135.5,286047000.7,N
1620080155.3,286046999.9,N
1620080175.1,286046997.3,N
1620080195.9,286046993.7,N
1620080215.7,286046993.8,N
1620080235.5,286046996.0,N
1620080255.4,286046998.6,N
1620080275.2,286046999.0,N
1620080295.1,286046999.1,N
1620080296.0,286046999.1,N
1620080315.8,286047000.9,N
1620080335.6,286047002.6,N
1620080355.5,286047000.4,N
1620080375.3,286046998.2,N
1620080395.1,286047000.5,N
1620080415.9,286047000.3,N
1620080435.7,286047002.6,N
1620080455.6,286046998.3,N
1620080475.4,286046997.3,N
1620080495.2,286046996.8,N
1620080515.1,286046997.1,N
1620080516.0,286046997.1,N
1620080535.8,286047000.6,N
1620080555.6,286046999.9,N
1620080575.5,286047002.3,N
1620080595.3,286046999.7,N
1620080615.2,286047001.0,N
1620080635.9,286047003.8,N
1620080655.7,286047001.4,N
1620080675.6,286047002.4,N
1620080695.4,286047002.5,N
1620080715.2,286047004.0,N
1620080735.1,286047000.1,N
1620080736.0,286047000.1,N
1620080755.8,286046999.5,N
1620080775.7,286047000.8,N
1620080795.5,286046998.3,N
1620080815.3,286046997.2,N
1620080835.2,286046997.6,N
1620080855.0,286046996.3,N
1620080855.9,286046996.3,N
1620080875.8,286046993.5,N
1620080895.6,286046997.5,N
1620080915.4,286046998.3,N
1620080935.3,286046998.4,N
1620080955.1,286046998.6,N
1620080975.9,286047002.4,N
1620080995.7,286046998.5,N
1620081015.5,286047000.4,N
1620081035.4,286047002.4,N
1620081055.2,286046998.8,N
1620081075.0,286046998.5,N
1620081075.9,286046998.5,N
1620081095.8,286047000.0,N
1620081115.6,286047002.8,N
1620081135.5,286047001.8,N
1620081155.3,286047001.8,N
1620081175.1,286046999.7,N
1620081195.9,286047002.4,N
1620081215.7,286047000.2,N
1620081235.5,286047002.7,N
1620081255.4,286047004.2,N
1620081275.2,286047004.3,N
1620081295.1,286047002.1,N
1620081296.0,286047002.1,N
1620081315.8,286047002.7,N
1620081335.6,286047002.3,N
1620081355.5,286047000.7,N
1620081375.3,286046997.0,N
1620081395.2,286046999.0,N
1620081415.9,286046996.5,N
1620081435.7,286046999.2,N
1620081455.6,286046999.1,N
1620081475.4,286047000.6,N
1620081495.2,286047002.7,N
1620081515.1,286047002.2,N
1620081516.0,286047002.2,N
1620081535.8,286047000.7,N
1620081555.7,286047002.0,N
1620081575.5,286047002.7,N
1620081595.3,286046998.7,N
1620081615.2,286047001.2,N
1620081635.0,286046998.3,N
1620081635.9,286046998.3,N
1620081655.7,286046996.6,N
1620081675.6,286047001.2,N
1620081695.4,286047000.4,N
1620081715.3,286046999.1,N
1620081735.1,286047002.5,N
1620081736.0,286047002.5,N
1620081755.8,286047002.8,N
1620081775.7,286046999.0,N
1620081795.5,286046998.3,N
1620081815.3,286046999.1,N
1620081835.2,286046999.5,N
1620081855.0,286046999.1,N
1620081855.9,286046999.1,N
1620081875.8,286047002.8,N
1620081895.6,286047002.3,N
1620081915.4,286047002.8,N
1620081935.3,286047003.9,N
1620081955.1,286047002.6,N
1620081975.9,286047002.4,N
1620081995.7,286047000.9,N
1620082015.5,286047000.5,N
1620082035.4,286047001.0,N
1620082055.2,286047001.3,N
1620082075.0,286047004.1,N
1620082075.9,286047004.1,N
1620082095.8,286047003.7,N
1620082115.6,286047004.0,N
1620082135.4,286047004.2,N
1620082155.3,286046999.9,N
1620082175.1,286046999.2,N
1620082195.9,286046998.8,N
1620082215.7,286046998.8,N
1620082235.5,286047000.0,N
1620082255.4,286047002.1,N
1620082275.2,286046998.3,N
1620082295.0,286046998.7,N
1620082295.9,286046998.7,N
1620082315.8,286046999.8,N
1620082335.6,286046998.7,N
1620082355.5,286047000.5,N
1620082375.3,286046999.3,N
1620082395.1,286046997.2,N
1620082415.9,286046997.0,N
1620082435.7,286046998.9,N
1620082455.6,286046996.5,N
1620082475.4,286046998.0,N
1620082495.2,286046997.5,N
1620082515.1,286046997.9,N
1620082516.0,286046997.9,N
1620082535.8,286047000.7,N
1620082555.7,286046998.4,N
1620082575.5,286047001.0,N
1620082595.3,286047002.7,N
1620082615.2,286047000.6,N
1620082635.0,286046999.0,N
1620082635.9,286046999.0,N
1620082655.7,286047000.2,N
1620082675.6,286047000.5,N
1620082695.4,286047002.8,N
1620082715.3,286047002.8,N
1620082735.1,286047000.4,N
1620082736.0,286047000.4,N
1620082755.8,286047000.2,N
1620082775.7,286047002.3,N
1620082795.5,286047001.9,N
